Regional Weather Roundup
Issued by NWS

Home | Current Version | Previous Version | Text Only | Print | Product List | Glossary Off
Versions: 1 2 3 4 5 6 7 8 9 10 11 12 13 14 15 16 17 18 19 20 21 22 23 24 25 26 27

000
ASUS45 KBOU 181607
RWRCO

WEATHER ROUNDUP FOR COLORADO
NATIONAL WEATHER SERVICE DENVER/BOULDER CO
900 AM MST SAT FEB 18 2017

NOTE: "FAIR" INDICATES FEW OR NO CLOUDS BELOW 12000 FEET WITH NO
SIGNIFICANT WEATHER AND/OR OBSTRUCTIONS TO VISIBILITY.

COZ001>005-013-030-031-181700-
...NORTHWEST COLORADO...

CITY           SKY/WX    TMP DP  RH WIND       PRES   REMARKS
CRAIG          PTSUNNY   42  32  67 NE7       29.82R
HAYDEN         FAIR      36  28  75 SE7       29.82S
MEEKER         CLOUDY    41  35  79 SW3       29.82R
MOUNT WERNER   NOT AVBL
STEAMBOAT SPGS FAIR      34  32  92 CALM      29.83S
WALDEN           N/A     34  27  75 S7          N/A  WCI  28
$$

COZ006>008-011-181700-
...WEST CENTRAL VALLEYS...

CITY           SKY/WX    TMP DP  RH WIND       PRES   REMARKS
GRAND JUNCTION CLOUDY    47  39  74 SE16      29.80S
MONTROSE       CLOUDY    43  34  70 SE7       29.86S
EAGLE          SUNNY     37  30  75 CALM      29.88S
RIFLE          FAIR      40  38  93 E5        29.84S
DELTA          FAIR      44  39  81 E6        29.85R
NUCLA          CLOUDY    37  34  87 CALM      29.86S
$$

COZ017>023-064>068-181700-
...SOUTHWEST COLORADO...

CITY           SKY/WX    TMP DP  RH WIND       PRES   REMARKS
DURANGO        PTSUNNY   37  32  82 E3        29.88R
CORTEZ         PTSUNNY   40  35  83 CALM      29.85R
PAGOSA SPRINGS FAIR      33  32  97 CALM      29.91F
TELLURIDE      CLOUDY    32  28  84 CALM      29.89S
WOLF CREEK PAS FAIR      23  23 100 S3        30.02S
$$

COZ009-010-012-014-032>034-037-058>063-181700-
...CENTRAL COLORADO...

CITY           SKY/WX    TMP DP  RH WIND       PRES   REMARKS
ASPEN          FAIR      34  28  79 SW3       29.85S
BUENA VISTA    FAIR      35  26  71 CALM      29.91S
COPPER MTN     NOT AVBL
BERTHOUD PASS  FAIR      23  12  63 S12       29.97S WCI  12
COTTONWOOD PAS FAIR      34  25  69 CALM      29.94R
GUNNISON       PTSUNNY   26  22  84 E7        29.93F WCI  18
KREMMLING      FAIR      41  32  70 E3        29.88S
LEADVILLE      FAIR      28  18  66 CALM      29.91R
MONARCH PASS   FAIR      23  21  93 S8        30.07S WCI  14
SALIDA         FAIR      37  28  69 CALM      29.97S
SUNLIGHT       NOT AVBL
WILKERSON PASS FAIR      28  21  74 SW6       29.99R WCI  22
$$

COZ069>075-181700-
...SAN LUIS VALLEY/SANGRE DE CRISTO MOUNTAINS...

CITY           SKY/WX    TMP DP  RH WIND       PRES   REMARKS
ALAMOSA        FAIR      32  29  88 NE5       29.91R WCI  27
LA VETA PASS   PTSUNNY   34  25  69 N6        29.96R WCI  29
SAGUACHE       FAIR      32  28  86 NW3       29.93F
$$

COZ035-036-038>040-181700-
...NORTHERN COLORADO FRONT RANGE...

CITY           SKY/WX    TMP DP  RH WIND       PRES   REMARKS
DENVER INTL AP PTSUNNY   44  17  33 W5        29.79R
DMNS CITY PARK   N/A     44  17  33 E9        29.79S
AURORA         PTSUNNY   45  19  34 W5        29.80R
FRONT RANGE AP NOT AVBL
ERIE MUNI ARPT FAIR      43  19  39 CALM      29.79S
BOULDER MUN AP FAIR      43  19  39 CALM      29.78F
CENTENNIAL     PTSUNNY   49  20  31 SW5       29.80S
BROOMFIELD     PTSUNNY   43  18  36 W5        29.79S
FORT COLLINS   FAIR      42  21  43 SE5       29.79S
LONGMONT       FAIR      43  22  44 CALM      29.80F
$$

COZ041-046-047-076>085-087-088-181700-
...PIKES PEAK/PALMER DIVIDE AND SOUTHERN FOOTHILLS...

CITY           SKY/WX    TMP DP  RH WIND       PRES   REMARKS
COLO. SPRINGS  PTSUNNY   43  16  33 S5        29.85R
A. F. ACADEMY  FAIR      43  17  35 S3        29.84R
SCHRIEVER AFB  FAIR      44  17  33 E5        29.84S
ELLICOTT       FAIR     N/A N/A N/A MISG      29.82S
FALCON         FAIR      45  15  29 S5        29.86S
FORT CARSON    FAIR      43  16  33 SE5       29.83S
LIMON          FAIR      38  27  64 S5        29.82S
MONUMENT HILL  FAIR      46  21  36 SW6       29.85S
TRINIDAD       FAIR      50  22  33 S7        29.84F
$$

COZ042>045-048>051-090-091-181700-
...NORTHEAST COLORADO...

CITY           SKY/WX    TMP DP  RH WIND       PRES   REMARKS
GREELEY ARPT   FAIR      37  21  52 SW3       29.80R
AKRON          FAIR      44  25  47 S14       29.80S
BURLINGTON     FAIR      47  31  53 SE9       29.83R
WRAY           NOT AVBL
STERLING       CLOUDY    37  28  70 SE3       29.78F
HOLYOKE        FAIR      43  28  56 SW5       29.84R
FORT MORGAN    FAIR      41  26  53 E3        29.78F
$$

COZ086-089-092>099-181700-
...SOUTHEAST COLORADO...

CITY           SKY/WX    TMP DP  RH WIND       PRES   REMARKS
PUEBLO         FAIR      42  21  43 CALM      29.83S
LA JUNTA       FAIR      38  26  62 CALM      29.83R
LAMAR          FAIR      42  26  53 NE3       29.81F
SPRINGFIELD      N/A     53  23  31 CALM      29.82S
$$




USA.gov is the U.S. government's official web portal to all federal, state and local government web resources and services.